"Time","Value","Approval","myLocation"
"2023-02-21 22:00",0.231,"Approved","OW512"
"2023-02-21 23:00",0.230995311167945,"Approved","OW512"
"2023-02-22 00:00",0.232990622335891,"Approved","OW512"
"2023-02-22 01:00",0.231985933503836,"Approved","OW512"
"2023-02-22 02:00",0.234981244671782,"Approved","OW512"
"2023-02-22 03:00",0.235976555839727,"Approved","OW512"
"2023-02-22 04:00",0.238971867007673,"Approved","OW512"
"2023-02-22 05:00",0.242967178175618,"Approved","OW512"
"2023-02-22 06:00",0.244962489343564,"Approved","OW512"
"2023-02-22 07:00",0.249957800511509,"Approved","OW512"
"2023-02-22 08:00",0.252953111679454,"Approved","OW512"
"2023-02-22 09:00",0.2539484228474,"Approved","OW512"
"2023-02-22 10:00",0.254943734015345,"Approved","OW512"
"2023-02-22 11:00",0.253939045183291,"Approved","OW512"
"2023-02-22 12:00",0.249934356351236,"Approved","OW512"
"2023-02-22 13:00",0.242929667519182,"Approved","OW512"
"2023-02-22 14:00",0.241924978687127,"Approved","OW512"
"2023-02-22 15:00",0.246920289855072,"Approved","OW512"
"2023-02-22 16:00",0.249915601023018,"Approved","OW512"
"2023-02-22 17:00",0.252910912190963,"Approved","OW512"
"2023-02-22 18:00",0.256906223358909,"Approved","OW512"
"2023-02-22 19:00",0.258901534526854,"Approved","OW512"
"2023-02-22 20:00",0.2608968456948,"Approved","OW512"
"2023-02-22 21:00",0.261892156862745,"Approved","OW512"
"2023-02-22 22:00",0.261887468030691,"Approved","OW512"
"2023-02-22 23:00",0.255882779198636,"Approved","OW512"
"2023-02-23 00:00",0.244878090366581,"Approved","OW512"
"2023-02-23 01:00",0.242873401534527,"Approved","OW512"
"2023-02-23 02:00",0.241868712702472,"Approved","OW512"
"2023-02-23 03:00",0.241864023870418,"Approved","OW512"
"2023-02-23 04:00",0.243859335038363,"Approved","OW512"
"2023-02-23 05:00",0.245854646206309,"Approved","OW512"
"2023-02-23 06:00",0.247849957374254,"Approved","OW512"
"2023-02-23 07:00",0.249845268542199,"Approved","OW512"
"2023-02-23 08:00",0.251840579710145,"Approved","OW512"
"2023-02-23 09:00",0.25283589087809,"Approved","OW512"
"2023-02-23 10:00",0.252831202046036,"Approved","OW512"
"2023-02-23 11:00",0.252826513213981,"Approved","OW512"
"2023-02-23 12:00",0.251821824381927,"Approved","OW512"
"2023-02-23 13:00",0.250817135549872,"Approved","OW512"
"2023-02-23 14:00",0.250812446717818,"Approved","OW512"
"2023-02-23 15:00",0.251807757885763,"Approved","OW512"
"2023-02-23 16:00",0.252803069053708,"Approved","OW512"
"2023-02-23 17:00",0.253798380221654,"Approved","OW512"
"2023-02-23 18:00",0.256793691389599,"Approved","OW512"
"2023-02-23 19:00",0.258789002557545,"Approved","OW512"
"2023-02-23 20:00",0.25978431372549,"Approved","OW512"
"2023-02-23 21:00",0.260779624893436,"Approved","OW512"
"2023-02-23 22:00",0.259774936061381,"Approved","OW512"
"2023-02-23 23:00",0.258770247229327,"Approved","OW512"
"2023-02-24 00:00",0.257765558397272,"Approved","OW512"
"2023-02-24 01:00",0.256760869565217,"Approved","OW512"
"2023-02-24 02:00",0.256756180733163,"Approved","OW512"
"2023-02-24 03:00",0.256751491901108,"Approved","OW512"
"2023-02-24 04:00",0.257746803069054,"Approved","OW512"
"2023-02-24 05:00",0.257742114236999,"Approved","OW512"
"2023-02-24 06:00",0.259737425404945,"Approved","OW512"
"2023-02-24 07:00",0.26173273657289,"Approved","OW512"
"2023-02-24 08:00",0.263728047740835,"Approved","OW512"
"2023-02-24 09:00",0.265723358908781,"Approved","OW512"
"2023-02-24 10:00",0.266718670076726,"Approved","OW512"
"2023-02-24 11:00",0.266713981244672,"Approved","OW512"
"2023-02-24 12:00",0.265709292412617,"Approved","OW512"
"2023-02-24 13:00",0.266704603580563,"Approved","OW512"
"2023-02-24 14:00",0.266699914748508,"Approved","OW512"
"2023-02-24 15:00",0.267695225916454,"Approved","OW512"
"2023-02-24 16:00",0.267690537084399,"Approved","OW512"
"2023-02-24 17:00",0.269685848252344,"Approved","OW512"
"2023-02-24 18:00",0.27168115942029,"Approved","OW512"
"2023-02-24 19:00",0.272676470588235,"Approved","OW512"
"2023-02-24 20:00",0.273671781756181,"Approved","OW512"
"2023-02-24 21:00",0.273667092924126,"Approved","OW512"
"2023-02-24 22:00",0.273662404092072,"Approved","OW512"
"2023-02-24 23:00",0.272657715260017,"Approved","OW512"
"2023-02-25 00:00",0.269653026427963,"Approved","OW512"
"2023-02-25 01:00",0.267648337595908,"Approved","OW512"
"2023-02-25 02:00",0.266643648763853,"Approved","OW512"
"2023-02-25 03:00",0.265638959931799,"Approved","OW512"
"2023-02-25 04:00",0.264634271099744,"Approved","OW512"
"2023-02-25 05:00",0.26462958226769,"Approved","OW512"
"2023-02-25 06:00",0.264624893435635,"Approved","OW512"
"2023-02-25 07:00",0.265620204603581,"Approved","OW512"
"2023-02-25 08:00",0.265615515771526,"Approved","OW512"
"2023-02-25 09:00",0.266610826939471,"Approved","OW512"
"2023-02-25 10:00",0.267606138107417,"Approved","OW512"
"2023-02-25 11:00",0.266601449275362,"Approved","OW512"
"2023-02-25 12:00",0.265596760443308,"Approved","OW512"
"2023-02-25 13:00",0.264592071611253,"Approved","OW512"
"2023-02-25 14:00",0.264587382779199,"Approved","OW512"
"2023-02-25 15:00",0.264582693947144,"Approved","OW512"
"2023-02-25 16:00",0.264578005115089,"Approved","OW512"
"2023-02-25 17:00",0.265573316283035,"Approved","OW512"
"2023-02-25 18:00",0.26656862745098,"Approved","OW512"
"2023-02-25 19:00",0.266563938618926,"Approved","OW512"
"2023-02-25 20:00",0.267559249786871,"Approved","OW512"
"2023-02-25 21:00",0.266554560954817,"Approved","OW512"
"2023-02-25 22:00",0.265549872122762,"Approved","OW512"
"2023-02-25 23:00",0.264545183290708,"Approved","OW512"
"2023-02-26 00:00",0.263540494458653,"Approved","OW512"
"2023-02-26 01:00",0.260535805626598,"Approved","OW512"
"2023-02-26 02:00",0.258531116794544,"Approved","OW512"
"2023-02-26 03:00",0.256526427962489,"Approved","OW512"
"2023-02-26 04:00",0.254521739130435,"Approved","OW512"
"2023-02-26 05:00",0.25251705029838,"Approved","OW512"
"2023-02-26 06:00",0.250512361466326,"Approved","OW512"
"2023-02-26 07:00",0.248507672634271,"Approved","OW512"
"2023-02-26 08:00",0.247502983802217,"Approved","OW512"
"2023-02-26 09:00",0.247498294970162,"Approved","OW512"
"2023-02-26 10:00",0.246493606138107,"Approved","OW512"
"2023-02-26 11:00",0.245488917306053,"Approved","OW512"
"2023-02-26 12:00",0.245484228473998,"Approved","OW512"
"2023-02-26 13:00",0.244479539641944,"Approved","OW512"
"2023-02-26 14:00",0.244474850809889,"Approved","OW512"
"2023-02-26 15:00",0.245470161977835,"Approved","OW512"
"2023-02-26 16:00",0.24646547314578,"Approved","OW512"
"2023-02-26 17:00",0.248460784313725,"Approved","OW512"
"2023-02-26 18:00",0.250456095481671,"Approved","OW512"
"2023-02-26 19:00",0.253451406649616,"Approved","OW512"
"2023-02-26 20:00",0.256446717817562,"Approved","OW512"
"2023-02-26 21:00",0.258442028985507,"Approved","OW512"
"2023-02-26 22:00",0.261437340153453,"Approved","OW512"
"2023-02-26 23:00",0.263432651321398,"Approved","OW512"
"2023-02-27 00:00",0.265427962489344,"Approved","OW512"
"2023-02-27 01:00",0.266423273657289,"Approved","OW512"
"2023-02-27 02:00",0.267418584825234,"Approved","OW512"
"2023-02-27 03:00",0.26841389599318,"Approved","OW512"
"2023-02-27 04:00",0.268409207161125,"Approved","OW512"
"2023-02-27 05:00",0.269404518329071,"Approved","OW512"
"2023-02-27 06:00",0.269399829497016,"Approved","OW512"
"2023-02-27 07:00",0.269395140664962,"Approved","OW512"
"2023-02-27 08:00",0.270390451832907,"Approved","OW512"
"2023-02-27 09:00",0.271385763000853,"Approved","OW512"
"2023-02-27 10:00",0.272381074168798,"Approved","OW512"
"2023-02-27 11:00",0.272376385336743,"Approved","OW512"
"2023-02-27 12:00",0.273371696504689,"Approved","OW512"
"2023-02-27 13:00",0.273367007672634,"Approved","OW512"
"2023-02-27 14:00",0.27436231884058,"Approved","OW512"
"2023-02-27 15:00",0.275357630008525,"Approved","OW512"
"2023-02-27 16:00",0.275352941176471,"Approved","OW512"
"2023-02-27 17:00",0.276348252344416,"Approved","OW512"
"2023-02-27 18:00",0.277343563512362,"Approved","OW512"
"2023-02-27 19:00",0.276338874680307,"Approved","OW512"
"2023-02-27 20:00",0.277334185848252,"Approved","OW512"
"2023-02-27 21:00",0.277329497016198,"Approved","OW512"
"2023-02-27 22:00",0.278324808184143,"Approved","OW512"
"2023-02-27 23:00",0.278320119352089,"Approved","OW512"
"2023-02-28 00:00",0.278315430520034,"Approved","OW512"
"2023-02-28 01:00",0.27731074168798,"Approved","OW512"
"2023-02-28 02:00",0.276306052855925,"Approved","OW512"
"2023-02-28 03:00",0.27530136402387,"Approved","OW512"
"2023-02-28 04:00",0.275296675191816,"Approved","OW512"
"2023-02-28 05:00",0.274291986359761,"Approved","OW512"
"2023-02-28 06:00",0.272287297527707,"Approved","OW512"
"2023-02-28 07:00",0.272282608695652,"Approved","OW512"
"2023-02-28 08:00",0.271277919863598,"Approved","OW512"
"2023-02-28 09:00",0.270273231031543,"Approved","OW512"
"2023-02-28 10:00",0.270268542199488,"Approved","OW512"
"2023-02-28 11:00",0.270263853367434,"Approved","OW512"
"2023-02-28 12:00",0.270259164535379,"Approved","OW512"
"2023-02-28 13:00",0.270254475703325,"Approved","OW512"
"2023-02-28 14:00",0.27024978687127,"Approved","OW512"
"2023-02-28 15:00",0.271245098039216,"Approved","OW512"
"2023-02-28 16:00",0.273240409207161,"Approved","OW512"
"2023-02-28 17:00",0.274235720375107,"Approved","OW512"
"2023-02-28 18:00",0.275231031543052,"Approved","OW512"
"2023-02-28 19:00",0.277226342710997,"Approved","OW512"
"2023-02-28 20:00",0.279221653878943,"Approved","OW512"
"2023-02-28 21:00",0.279216965046888,"Approved","OW512"
"2023-02-28 22:00",0.281212276214834,"Approved","OW512"
"2023-02-28 23:00",0.283207587382779,"Approved","OW512"
"2023-03-01 00:00",0.285202898550725,"Approved","OW512"
"2023-03-01 01:00",0.28719820971867,"Approved","OW512"
"2023-03-01 02:00",0.290193520886616,"Approved","OW512"
"2023-03-01 03:00",0.291188832054561,"Approved","OW512"
"2023-03-01 04:00",0.292184143222506,"Approved","OW512"
"2023-03-01 05:00",0.292179454390452,"Approved","OW512"
"2023-03-01 06:00",0.293174765558397,"Approved","OW512"
"2023-03-01 07:00",0.293170076726343,"Approved","OW512"
"2023-03-01 08:00",0.292165387894288,"Approved","OW512"
"2023-03-01 09:00",0.291160699062234,"Approved","OW512"
"2023-03-01 10:00",0.291156010230179,"Approved","OW512"
"2023-03-01 11:00",0.291151321398124,"Approved","OW512"
"2023-03-01 12:00",0.29214663256607,"Approved","OW512"
"2023-03-01 13:00",0.292141943734015,"Approved","OW512"
"2023-03-01 14:00",0.293137254901961,"Approved","OW512"
"2023-03-01 15:00",0.294132566069906,"Approved","OW512"
"2023-03-01 16:00",0.295127877237852,"Approved","OW512"
"2023-03-01 17:00",0.297123188405797,"Approved","OW512"
"2023-03-01 18:00",0.297118499573743,"Approved","OW512"
"2023-03-01 19:00",0.297113810741688,"Approved","OW512"
"2023-03-01 20:00",0.298109121909633,"Approved","OW512"
"2023-03-01 21:00",0.298104433077579,"Approved","OW512"
"2023-03-01 22:00",0.298099744245524,"Approved","OW512"
"2023-03-01 23:00",0.29909505541347,"Approved","OW512"
"2023-03-02 00:00",0.299090366581415,"Approved","OW512"
"2023-03-02 01:00",0.300085677749361,"Approved","OW512"
"2023-03-02 02:00",0.301080988917306,"Approved","OW512"
"2023-03-02 03:00",0.301076300085251,"Approved","OW512"
"2023-03-02 04:00",0.301071611253197,"Approved","OW512"
"2023-03-02 05:00",0.300066922421142,"Approved","OW512"
"2023-03-02 06:00",0.298062233589088,"Approved","OW512"
"2023-03-02 07:00",0.296057544757033,"Approved","OW512"
"2023-03-02 08:00",0.294052855924979,"Approved","OW512"
"2023-03-02 09:00",0.290048167092924,"Approved","OW512"
"2023-03-02 10:00",0.28704347826087,"Approved","OW512"
"2023-03-02 11:00",0.285038789428815,"Approved","OW512"
"2023-03-02 12:00",0.28303410059676,"Approved","OW512"
"2023-03-02 13:00",0.280029411764706,"Approved","OW512"
"2023-03-02 14:00",0.280024722932651,"Approved","OW512"
"2023-03-02 15:00",0.279020034100597,"Approved","OW512"
"2023-03-02 16:00",0.279015345268542,"Approved","OW512"
"2023-03-02 17:00",0.279010656436488,"Approved","OW512"
"2023-03-02 18:00",0.279005967604433,"Approved","OW512"
"2023-03-02 19:00",0.279001278772379,"Approved","OW512"
"2023-03-02 20:00",0.279996589940324,"Approved","OW512"
"2023-03-02 21:00",0.278991901108269,"Approved","OW512"
"2023-03-02 22:00",0.278987212276215,"Approved","OW512"
"2023-03-02 23:00",0.28098252344416,"Approved","OW512"
"2023-03-03 00:00",0.281977834612106,"Approved","OW512"
"2023-03-03 01:00",0.283973145780051,"Approved","OW512"
"2023-03-03 02:00",0.284968456947997,"Approved","OW512"
"2023-03-03 03:00",0.286963768115942,"Approved","OW512"
"2023-03-03 04:00",0.288959079283887,"Approved","OW512"
"2023-03-03 05:00",0.289954390451833,"Approved","OW512"
"2023-03-03 06:00",0.290949701619778,"Approved","OW512"
"2023-03-03 07:00",0.289945012787724,"Approved","OW512"
"2023-03-03 08:00",0.288940323955669,"Approved","OW512"
"2023-03-03 09:00",0.286935635123615,"Approved","OW512"
"2023-03-03 10:00",0.28493094629156,"Approved","OW512"
"2023-03-03 11:00",0.282926257459506,"Approved","OW512"
"2023-03-03 12:00",0.281921568627451,"Approved","OW512"
"2023-03-03 13:00",0.281916879795396,"Approved","OW512"
"2023-03-03 14:00",0.281912190963342,"Approved","OW512"
"2023-03-03 15:00",0.283907502131287,"Approved","OW512"
"2023-03-03 16:00",0.285902813299233,"Approved","OW512"
"2023-03-03 17:00",0.285898124467178,"Approved","OW512"
"2023-03-03 18:00",0.285893435635124,"Approved","OW512"
"2023-03-03 19:00",0.284888746803069,"Approved","OW512"
"2023-03-03 20:00",0.283884057971015,"Approved","OW512"
"2023-03-03 21:00",0.28287936913896,"Approved","OW512"
"2023-03-03 22:00",0.281874680306905,"Approved","OW512"
"2023-03-03 23:00",0.280869991474851,"Approved","OW512"
"2023-03-04 00:00",0.280865302642796,"Approved","OW512"
"2023-03-04 01:00",0.280860613810742,"Approved","OW512"
"2023-03-04 02:00",0.281855924978687,"Approved","OW512"
"2023-03-04 03:00",0.282851236146633,"Approved","OW512"
"2023-03-04 04:00",0.284846547314578,"Approved","OW512"
"2023-03-04 05:00",0.285841858482523,"Approved","OW512"
"2023-03-04 06:00",0.285837169650469,"Approved","OW512"
"2023-03-04 07:00",0.284832480818414,"Approved","OW512"
"2023-03-04 08:00",0.28282779198636,"Approved","OW512"
"2023-03-04 09:00",0.279823103154305,"Approved","OW512"
"2023-03-04 10:00",0.277818414322251,"Approved","OW512"
"2023-03-04 11:00",0.274813725490196,"Approved","OW512"
"2023-03-04 12:00",0.273809036658142,"Approved","OW512"
"2023-03-04 13:00",0.272804347826087,"Approved","OW512"
"2023-03-04 14:00",0.272799658994032,"Approved","OW512"
"2023-03-04 15:00",0.273794970161978,"Approved","OW512"
"2023-03-04 16:00",0.274790281329923,"Approved","OW512"
"2023-03-04 17:00",0.275785592497869,"Approved","OW512"
"2023-03-04 18:00",0.275780903665814,"Approved","OW512"
"2023-03-04 19:00",0.27577621483376,"Approved","OW512"
"2023-03-04 20:00",0.275771526001705,"Approved","OW512"
"2023-03-04 21:00",0.272766837169651,"Approved","OW512"
"2023-03-04 22:00",0.271762148337596,"Approved","OW512"
"2023-03-04 23:00",0.270757459505541,"Approved","OW512"
"2023-03-05 00:00",0.270752770673487,"Approved","OW512"
"2023-03-05 01:00",0.272748081841432,"Approved","OW512"
"2023-03-05 02:00",0.274743393009378,"Approved","OW512"
"2023-03-05 03:00",0.276738704177323,"Approved","OW512"
"2023-03-05 04:00",0.279734015345269,"Approved","OW512"
"2023-03-05 05:00",0.281729326513214,"Approved","OW512"
"2023-03-05 06:00",0.282724637681159,"Approved","OW512"
"2023-03-05 07:00",0.283719948849105,"Approved","OW512"
"2023-03-05 08:00",0.28271526001705,"Approved","OW512"
"2023-03-05 09:00",0.281710571184996,"Approved","OW512"
"2023-03-05 10:00",0.279705882352941,"Approved","OW512"
"2023-03-05 11:00",0.277701193520887,"Approved","OW512"
"2023-03-05 12:00",0.276696504688832,"Approved","OW512"
"2023-03-05 13:00",0.276691815856777,"Approved","OW512"
"2023-03-05 14:00",0.276687127024723,"Approved","OW512"
"2023-03-05 15:00",0.278682438192668,"Approved","OW512"
"2023-03-05 16:00",0.279677749360614,"Approved","OW512"
"2023-03-05 17:00",0.282673060528559,"Approved","OW512"
"2023-03-05 18:00",0.283668371696505,"Approved","OW512"
"2023-03-05 19:00",0.28566368286445,"Approved","OW512"
"2023-03-05 20:00",0.285658994032396,"Approved","OW512"
"2023-03-05 21:00",0.285654305200341,"Approved","OW512"
"2023-03-05 22:00",0.284649616368286,"Approved","OW512"
"2023-03-05 23:00",0.283644927536232,"Approved","OW512"
"2023-03-06 00:00",0.282640238704177,"Approved","OW512"
"2023-03-06 01:00",0.283635549872123,"Approved","OW512"
"2023-03-06 02:00",0.284630861040068,"Approved","OW512"
"2023-03-06 03:00",0.287626172208014,"Approved","OW512"
"2023-03-06 04:00",0.290621483375959,"Approved","OW512"
"2023-03-06 05:00",0.292616794543904,"Approved","OW512"
"2023-03-06 06:00",0.29361210571185,"Approved","OW512"
"2023-03-06 07:00",0.293607416879795,"Approved","OW512"
"2023-03-06 08:00",0.293602728047741,"Approved","OW512"
"2023-03-06 09:00",0.291598039215686,"Approved","OW512"
"2023-03-06 10:00",0.289593350383632,"Approved","OW512"
"2023-03-06 11:00",0.287588661551577,"Approved","OW512"
"2023-03-06 12:00",0.286583972719523,"Approved","OW512"
"2023-03-06 13:00",0.285579283887468,"Approved","OW512"
"2023-03-06 14:00",0.284574595055413,"Approved","OW512"
"2023-03-06 15:00",0.287569906223359,"Approved","OW512"
"2023-03-06 16:00",0.289565217391304,"Approved","OW512"
"2023-03-06 17:00",0.29256052855925,"Approved","OW512"
"2023-03-06 18:00",0.293555839727195,"Approved","OW512"
"2023-03-06 19:00",0.294551150895141,"Approved","OW512"
"2023-03-06 20:00",0.293546462063086,"Approved","OW512"
"2023-03-06 21:00",0.290541773231032,"Approved","OW512"
"2023-03-06 22:00",0.287537084398977,"Approved","OW512"
"2023-03-06 23:00",0.286532395566922,"Approved","OW512"
"2023-03-07 00:00",0.284527706734868,"Approved","OW512"
"2023-03-07 01:00",0.283523017902813,"Approved","OW512"
"2023-03-07 02:00",0.284518329070759,"Approved","OW512"
"2023-03-07 03:00",0.285513640238704,"Approved","OW512"
"2023-03-07 04:00",0.28850895140665,"Approved","OW512"
"2023-03-07 05:00",0.290504262574595,"Approved","OW512"
"2023-03-07 06:00",0.29149957374254,"Approved","OW512"
"2023-03-07 07:00",0.292494884910486,"Approved","OW512"
"2023-03-07 08:00",0.291490196078431,"Approved","OW512"
"2023-03-07 09:00",0.289485507246377,"Approved","OW512"
"2023-03-07 10:00",0.287480818414322,"Approved","OW512"
"2023-03-07 11:00",0.285476129582268,"Approved","OW512"
"2023-03-07 12:00",0.282471440750213,"Approved","OW512"
"2023-03-07 13:00",0.280466751918159,"Approved","OW512"
"2023-03-07 14:00",0.280462063086104,"Approved","OW512"
"2023-03-07 15:00",0.280457374254049,"Approved","OW512"
"2023-03-07 16:00",0.281452685421995,"Approved","OW512"
"2023-03-07 17:00",0.28444799658994,"Approved","OW512"
"2023-03-07 18:00",0.285443307757886,"Approved","OW512"
"2023-03-07 19:00",0.285438618925831,"Approved","OW512"
"2023-03-07 20:00",0.284433930093777,"Approved","OW512"
"2023-03-07 21:00",0.281429241261722,"Approved","OW512"
"2023-03-07 22:00",0.277424552429668,"Approved","OW512"
"2023-03-07 23:00",0.273419863597613,"Approved","OW512"
"2023-03-08 00:00",0.271415174765558,"Approved","OW512"
"2023-03-08 01:00",0.268410485933504,"Approved","OW512"
"2023-03-08 02:00",0.266405797101449,"Approved","OW512"
"2023-03-08 03:00",0.266401108269395,"Approved","OW512"
"2023-03-08 04:00",0.26739641943734,"Approved","OW512"
"2023-03-08 05:00",0.268391730605286,"Approved","OW512"
"2023-03-08 06:00",0.269387041773231,"Approved","OW512"
"2023-03-08 07:00",0.270382352941176,"Approved","OW512"
"2023-03-08 08:00",0.269377664109122,"Approved","OW512"
"2023-03-08 09:00",0.267372975277067,"Approved","OW512"
"2023-03-08 10:00",0.264368286445013,"Approved","OW512"
"2023-03-08 11:00",0.262363597612958,"Approved","OW512"
"2023-03-08 12:00",0.260358908780904,"Approved","OW512"
"2023-03-08 13:00",0.258354219948849,"Approved","OW512"
"2023-03-08 14:00",0.257349531116795,"Approved","OW512"
"2023-03-08 15:00",0.25834484228474,"Approved","OW512"
"2023-03-08 16:00",0.259340153452685,"Approved","OW512"
"2023-03-08 17:00",0.261335464620631,"Approved","OW512"
"2023-03-08 18:00",0.262330775788576,"Approved","OW512"
"2023-03-08 19:00",0.263326086956522,"Approved","OW512"
"2023-03-08 20:00",0.262321398124467,"Approved","OW512"
"2023-03-08 21:00",0.260316709292413,"Approved","OW512"
"2023-03-08 22:00",0.258312020460358,"Approved","OW512"
"2023-03-08 23:00",0.255307331628303,"Approved","OW512"
"2023-03-09 00:00",0.253302642796249,"Approved","OW512"
"2023-03-09 01:00",0.251297953964194,"Approved","OW512"
"2023-03-09 02:00",0.25029326513214,"Approved","OW512"
"2023-03-09 03:00",0.250288576300085,"Approved","OW512"
"2023-03-09 04:00",0.251283887468031,"Approved","OW512"
"2023-03-09 05:00",0.253279198635976,"Approved","OW512"
"2023-03-09 06:00",0.255274509803922,"Approved","OW512"
"2023-03-09 07:00",0.256269820971867,"Approved","OW512"
"2023-03-09 08:00",0.256265132139812,"Approved","OW512"
"2023-03-09 09:00",0.256260443307758,"Approved","OW512"
"2023-03-09 10:00",0.255255754475703,"Approved","OW512"
"2023-03-09 11:00",0.252251065643649,"Approved","OW512"
"2023-03-09 12:00",0.250246376811594,"Approved","OW512"
"2023-03-09 13:00",0.24924168797954,"Approved","OW512"
"2023-03-09 14:00",0.249236999147485,"Approved","OW512"
"2023-03-09 15:00",0.24923231031543,"Approved","OW512"
"2023-03-09 16:00",0.250227621483376,"Approved","OW512"
"2023-03-09 17:00",0.252222932651321,"Approved","OW512"
"2023-03-09 18:00",0.253218243819267,"Approved","OW512"
"2023-03-09 19:00",0.254213554987212,"Approved","OW512"
"2023-03-09 20:00",0.254208866155158,"Approved","OW512"
"2023-03-09 21:00",0.252204177323103,"Approved","OW512"
"2023-03-09 22:00",0.249199488491049,"Approved","OW512"
"2023-03-09 23:00",0.245194799658994,"Approved","OW512"
"2023-03-10 00:00",0.241190110826939,"Approved","OW512"
"2023-03-10 01:00",0.237185421994885,"Approved","OW512"
"2023-03-10 02:00",0.23418073316283,"Approved","OW512"
"2023-03-10 03:00",0.232176044330776,"Approved","OW512"
"2023-03-10 04:00",0.231171355498721,"Approved","OW512"
"2023-03-10 05:00",0.231166666666667,"Approved","OW512"
"2023-03-10 06:00",0.231161977834612,"Approved","OW512"
"2023-03-10 07:00",0.230157289002558,"Approved","OW512"
"2023-03-10 08:00",0.229152600170503,"Approved","OW512"
"2023-03-10 09:00",0.226147911338448,"Approved","OW512"
"2023-03-10 10:00",0.223143222506394,"Approved","OW512"
"2023-03-10 11:00",0.221138533674339,"Approved","OW512"
"2023-03-10 12:00",0.219133844842285,"Approved","OW512"
"2023-03-10 13:00",0.21612915601023,"Approved","OW512"
"2023-03-10 14:00",0.215124467178176,"Approved","OW512"
"2023-03-10 15:00",0.216119778346121,"Approved","OW512"
"2023-03-10 16:00",0.217115089514066,"Approved","OW512"
"2023-03-10 17:00",0.219110400682012,"Approved","OW512"
"2023-03-10 18:00",0.221105711849957,"Approved","OW512"
"2023-03-10 19:00",0.224101023017903,"Approved","OW512"
"2023-03-10 20:00",0.225096334185848,"Approved","OW512"
"2023-03-10 21:00",0.226091645353794,"Approved","OW512"
"2023-03-10 22:00",0.226086956521739,"Approved","OW512"
"2023-03-10 23:00",0.226082267689685,"Approved","OW512"
"2023-03-11 00:00",0.22507757885763,"Approved","OW512"
"2023-03-11 01:00",0.225072890025575,"Approved","OW512"
"2023-03-11 02:00",0.224068201193521,"Approved","OW512"
"2023-03-11 03:00",0.225063512361466,"Approved","OW512"
"2023-03-11 04:00",0.226058823529412,"Approved","OW512"
"2023-03-11 05:00",0.228054134697357,"Approved","OW512"
"2023-03-11 06:00",0.230049445865303,"Approved","OW512"
"2023-03-11 07:00",0.232044757033248,"Approved","OW512"
"2023-03-11 08:00",0.234040068201194,"Approved","OW512"
"2023-03-11 09:00",0.235035379369139,"Approved","OW512"
"2023-03-11 10:00",0.235030690537084,"Approved","OW512"